This demonstration page uses our WeatherBlox Daily Observations layout. Learn more.

Left ArrowRight Arrow

Hourly Observations for April 30, 2018

Temp ( °F °C ) Dew Point ( °F °C ) Humidity (%) Winds ( mph kmh ) Pressure ( in mb ) Visibility ( mi km ) Precip ( " mm )
12:53 am 00:53 Clear 52 11.1 47 8.3 83 83 NW 5 7 30.03 1017 10 16 0.00 0.00
1:53 am 01:53 Clear 50 10 47 8.3 89 89 Calm 30.02 1017 10 16 0.00 0.00
2:53 am 02:53 Clear 49 9.4 46 7.8 90 90 undefined N/A 30.02 1017 10 16 0.00 0.00
3:53 am 03:53 Clear 48 8.9 46 7.8 93 93 undefined N/A 30.01 1016 10 16 0.00 0.00
4:53 am 04:53 Mostly Cloudy 48 8.9 46 7.8 93 93 Calm 30.01 1016 10 16 0.00 0.00
5:53 am 05:53 Mostly Clear 47 8.3 44 6.7 90 90 N 3 6 30.00 1016 10 16 0.00 0.00
6:53 am 06:53 Cloudy 50 10 46 7.8 86 86 N 5 7 30.00 1016 10 16 0.00 0.00
7:53 am 07:53 Mostly Cloudy 50 10 46 7.8 86 86 Calm 30.02 1017 10 16 0.00 0.00
8:53 am 08:53 Cloudy 53 11.7 49 9.4 86 86 Calm 30.01 1016 10 16 0.00 0.00
9:53 am 09:53 Mostly Sunny 60 15.6 43 6.1 53 53 NNW 7 11 29.99 1016 10 16 0.00 0.00
10:53 am 10:53 Sunny 65 18.3 43 6.1 45 45 N 8 13 29.98 1015 10 16 0.00 0.00
11:53 am 11:53 Sunny 67 19.4 41 5 39 39 VRB 3 6 29.96 1015 10 16 0.00 0.00
12:53 pm 12:53 Sunny 70 21.1 40 4.4 34 34 VRB 6 9 29.94 1014 10 16 0.00 0.00
1:53 pm 13:53 Sunny 71 21.7 39 3.9 31 31 VRB 6 9 29.92 1013 10 16 0.00 0.00
2:53 pm 14:53 Mostly Sunny 72 22.2 38 3.3 29 29 N 8 13 29.89 1012 10 16 0.00 0.00
3:53 pm 15:53 Sunny 71 21.7 37 2.8 29 29 VRB 3 6 29.87 1012 10 16 0.00 0.00
4:53 pm 16:53 Mostly Cloudy 73 22.8 37 2.8 27 27 NNE 8 13 29.85 1011 10 16 0.00 0.00
5:53 pm 17:53 Mostly Sunny 69 20.6 41 5 36 36 SE 3 6 29.85 1011 10 16 0.00 0.00
6:53 pm 18:53 Sunny 69 20.6 44 6.7 41 41 ESE 5 7 29.83 1010 10 16 0.00 0.00
7:53 pm 19:53 Sunny 65 18.3 46 7.8 51 51 Calm 29.83 1010 10 16 0.00 0.00
8:53 pm 20:53 Cloudy 63 17.2 47 8.3 56 56 NNW 5 7 29.85 1011 10 16 0.00 0.00
9:53 pm 21:53 Cloudy 62 16.7 44 6.7 52 52 ENE 5 7 29.86 1011 10 16 0.00 0.00
10:53 pm 22:53 Cloudy 61 16.1 43 6.1 52 52 NNW 6 9 29.88 1012 10 16 0.00 0.00
11:53 pm 23:53 Cloudy 62 16.7 37 2.8 40 40 NNW 8 13 29.88 1012 10 16 0.00 0.00

Powered by AerisWeather